Theta_e
322 322 322 322 323 321 326 329 331 331 332 333 344 349 350 350 349 348 351 349 347 331 335 339 341 343 342 338 337 333 332 332 333 332 330 326 322 324 326 326 324 323 323 323 321 322 323 327 327
321 322 322 324 322 324 324 327 329 329 332 334 344 349 349 350 351 353 352 353 342 330 332 337 341 343 341 338 337 333 333 334 335 331 329 323 323 325 325 324 323 323 323 322 323 324 326 327 326
320 321 320 319 318 323 325 328 328 330 334 334 340 346 347 353 351 353 353 346 336 331 333 336 341 343 341 338 338 335 335 336 336 331 327 323 323 324 322 323 323 323 322 322 323 325 326 325 325
319 320 321 320 320 322 326 327 327 329 332 334 345 347 350 350 351 351 352 342 333 333 331 335 342 343 341 339 339 339 338 338 338 334 326 323 324 323 323 324 323 322 322 322 323 324 325 324 324
317 318 317 319 320 322 324 325 326 328 332 338 345 349 349 350 350 353 353 347 342 331 331 335 341 344 341 340 339 340 341 340 339 337 331 323 324 326 325 324 324 322 321 321 322 323 324 323 323
318 318 317 320 321 323 323 325 326 331 332 343 348 346 347 347 348 352 350 349 345 332 330 334 340 343 342 341 340 340 341 343 341 339 337 327 323 323 324 325 324 322 321 321 322 322 322 322 322
315 312 316 319 321 323 325 331 327 331 328 331 340 332 345 348 347 348 348 348 348 333 326 332 338 342 343 342 341 340 340 342 344 342 339 336 325 323 322 322 321 321 321 322 322 321 321 321 321
317 312 317 317 321 322 323 328 330 329 328 331 332 328 328 348 348 348 349 349 348 348 343 331 332 338 342 342 342 341 340 340 342 344 342 340 337 326 323 322 321 321 322 322 322 321 320 320 320
316 312 315 316 318 320 325 327 331 330 329 327 329 328 329 328 340 347 351 351 350 349 348 346 337 329 335 339 341 341 339 338 339 342 344 342 340 337 327 323 322 321 321 322 322 321 320 320 320
310 312 314 315 317 320 322 324 326 325 323 325 327 326 326 326 326 332 348 349 350 351 350 348 345 333 333 333 335 337 337 337 339 341 343 344 342 339 334 328 323 322 321 322 323 322 321 320 320
312 312 314 317 317 319 320 321 324 322 321 322 320 323 325 325 325 325 334 332 341 350 351 350 348 339 332 329 331 332 333 332 333 338 342 344 344 342 341 337 330 324 321 322 323 323 321 321 320
310 313 314 316 318 319 320 320 322 325 323 322 320 320 321 322 323 323 323 323 335 345 348 350 349 346 345 345 340 336 331 331 330 330 336 343 344 343 342 341 336 329 323 322 322 323 322 321 321
310 312 315 317 317 316 319 322 323 323 326 325 321 320 320 321 321 321 323 322 321 322 331 341 349 348 345 337 340 339 336 333 333 332 331 334 342 342 342 341 337 331 326 322 322 323 323 322 321
313 313 314 316 316 316 316 317 319 321 322 320 320 320 320 320 320 320 320 322 321 322 326 333 343 348 344 342 341 339 342 342 342 342 343 339 332 334 339 339 339 333 329 325 322 322 324 324 322
313 312 313 314 315 314 318 316 316 320 320 320 320 320 319 319 320 320 321 321 321 322 324 331 338 343 345 342 340 339 339 346 346 345 346 347 341 335 333 332 330 333 336 331 324 323 322 322 321
313 312 313 314 315 317 317 316 317 320 319 319 320 319 319 319 320 320 320 320 320 325 327 332 339 343 344 341 340 336 344 348 348 347 347 346 346 343 340 335 332 329 335 336 335 329 329 322 321
313 313 314 315 314 316 316 315 316 319 319 319 319 319 319 320 320 320 320 320 320 320 322 325 328 331 332 341 346 344 345 350 351 350 349 348 348 347 347 345 341 335 332 336 340 335 336 329 322
315 315 315 316 316 315 315 315 315 319 319 319 318 319 319 320 320 320 320 320 320 320 320 321 321 321 321 321 321 331 342 349 349 348 348 348 348 348 346 346 345 343 338 335 341 338 338 336 329
316 316 316 315 316 315 315 315 315 316 318 318 318 319 320 320 320 320 320 320 319 321 320 321 322 323 324 324 322 321 334 346 342 344 345 345 346 346 347 347 345 344 343 339 339 342 338 338 335
317 316 316 316 317 316 314 314 315 316 317 318 319 319 319 319 322 323 323 322 322 323 324 324 324 327 328 327 326 325 323 323 327 330 331 337 340 340 342 345 346 346 344 342 340 340 341 338 338
316 316 317 317 317 316 316 316 318 318 319 320 319 319 319 321 322 321 322 322 321 322 322 322 323 323 322 321 321 321 321 322 322 322 323 326 329 332 337 339 342 345 346 345 343 341 341 341 339
316 317 318 319 316 316 317 317 317 318 318 318 318 321 321 321 321 321 321 321 321 321 321 321 321 321 321 321 321 321 321 321 321 320 319 319 319 321 324 330 336 339 341 345 345 344 343 341 339
315 319 319 319 316 316 317 316 316 317 319 318 316 319 320 320 320 320 321 321 321 321 321 321 320 320 320 320 320 320 321 321 321 320 319 318 318 317 318 322 327 334 339 339 342 343 343 343 340
318 317 315 315 314 316 317 316 316 317 318 318 317 319 320 320 320 320 320 320 319 319 318 318 317 316 317 318 318 318 319 318 318 318 318 319 320 321 323 324 325 331 332 336 337 339 340 342 341
315 314 315 317 318 319 321 320 317 319 317 317 316 319 319 319 318 317 316 316 316 316 315 316 316 317 317 317 317 317 316 318 318 317 317 319 321 320 325 327 327 329 333 335 335 336 336 338 339
318 316 317 321 322 321 319 323 322 317 317 318 319 319 319 319 318 317 317 316 317 316 316 317 318 317 317 317 317 316 317 317 317 317 317 317 317 317 317 325 327 328 331 332 336 335 337 337 338
319 317 317 319 319 319 318 320 319 319 319 318 318 319 318 318 318 317 317 317 316 316 317 317 317 317 317 317 317 317 318 317 317 317 317 317 317 316 314 320 324 328 330 331 331 335 334 335 337
319 318 319 318 322 322 321 321 321 319 318 317 316 317 317 318 318 317 316 317 317 317 317 317 317 317 317 317 318 319 318 316 316 317 316 316 316 316 315 313 321 325 328 329 328 328 332 333 335
320 319 317 318 321 319 319 319 317 316 314 313 313 316 315 314 315 315 315 315 315 315 315 315 315 315 315 315 316 316 315 315 316 316 315 318 318 316 315 314 316 324 326 326 328 329 329 332 333
318 318 316 319 319 318 316 316 318 317 316 314 312 315 315 314 314 314 314 314 314 313 313 313 312 312 311 311 311 312 313 314 313 314 315 316 317 316 314 314 315 321 324 325 326 329 331 331 330
Wind_Speed
14 12 12 10 2 3 4 7 2 9 6 5 8 16 6 3 2 4 16 26 19 30 28 27 26 25 23 21 20 21 20 19 17 16 15 15 18 20 21 21 19 18 15 14 13 13 13 13 12
13 13 8 2 3 2 5 5 9 14 20 3 20 21 9 3 5 10 21 16 26 27 27 27 27 26 24 22 21 21 20 18 17 16 15 16 19 20 21 20 19 17 15 13 12 12 12 11 11
10 10 5 3 4 7 4 5 9 14 21 9 5 8 4 6 10 18 17 23 29 26 26 27 28 26 25 22 21 21 20 18 16 15 15 17 19 21 20 19 17 15 13 12 11 11 10 10 11
3 1 5 2 8 10 5 9 10 15 28 26 16 5 4 8 14 13 21 21 25 26 24 27 27 26 25 22 22 21 20 18 16 15 15 17 18 19 19 18 16 14 12 11 11 10 9 9 10
8 3 1 3 9 7 7 11 21 15 23 7 8 5 7 9 8 22 19 19 16 23 24 26 26 26 24 22 22 20 19 18 16 14 14 16 17 18 18 17 15 13 12 12 11 10 10 10 9
8 3 2 7 11 9 7 20 19 17 5 16 19 12 9 13 15 16 13 9 7 21 23 24 25 24 24 22 21 20 19 17 16 15 13 14 16 17 17 17 15 13 13 12 12 11 10 9 8
7 4 5 6 8 6 3 23 7 5 12 5 20 6 13 21 14 12 10 8 11 13 19 22 24 25 24 23 21 20 19 17 17 16 15 13 14 16 16 16 15 14 13 12 12 11 11 10 9
7 4 4 6 8 8 7 12 15 17 10 6 9 3 6 20 19 15 13 13 14 12 12 16 22 24 25 24 22 21 20 19 19 18 17 16 14 14 16 16 16 15 14 14 13 12 11 10 9
18 3 9 7 6 7 9 5 30 16 21 6 17 17 16 14 16 19 23 20 21 19 15 16 17 22 23 23 22 21 20 20 21 21 22 21 19 17 17 17 17 16 16 15 14 14 13 12 10
7 7 9 5 9 10 5 5 23 6 3 4 14 17 13 7 9 16 26 21 21 23 20 16 15 19 22 21 21 21 22 23 24 25 26 25 23 20 19 19 19 19 18 18 17 16 15 14 13
5 6 9 22 24 22 15 10 28 10 5 3 9 11 10 8 13 14 17 11 13 21 22 21 18 18 16 19 22 22 24 24 25 26 27 27 26 25 24 22 22 22 22 22 21 20 19 17 16
3 12 19 22 27 21 9 12 28 31 21 14 7 3 6 8 9 6 7 10 13 15 21 25 24 20 18 16 14 16 23 27 26 27 28 30 31 30 29 27 26 25 25 25 24 23 22 21 20
6 12 17 30 34 23 19 21 27 17 30 30 14 1 3 5 5 4 7 5 0 5 14 23 25 24 19 20 25 23 24 27 26 25 27 31 34 34 33 32 31 30 29 29 29 28 27 26 24
10 27 26 25 32 22 11 13 12 22 27 17 13 14 4 6 7 4 3 13 9 4 8 16 26 28 27 24 24 24 20 22 23 21 21 30 35 36 36 36 36 36 35 33 33 32 31 30 28
23 9 8 20 21 11 20 6 7 15 16 18 19 20 16 9 10 10 6 1 12 9 3 13 18 22 24 23 25 28 24 22 23 24 23 24 31 37 36 38 40 39 38 35 35 36 36 36 34
9 5 11 12 9 10 13 9 8 16 19 22 24 23 17 10 10 12 9 6 5 2 13 14 16 20 22 24 23 27 25 27 26 24 26 26 27 28 31 39 41 41 41 38 37 37 38 39 37
2 6 6 7 8 6 6 5 11 21 14 23 30 24 19 13 12 15 16 11 8 9 4 11 12 9 9 13 21 25 29 28 25 27 31 31 31 29 31 32 35 38 41 42 40 39 37 37 41
5 3 0 4 5 3 4 9 7 13 17 22 23 25 23 22 19 17 17 14 14 11 10 8 10 9 8 8 10 14 23 29 30 30 31 31 32 34 36 37 37 38 40 44 44 43 40 40 41
3 5 4 4 8 11 14 12 11 8 9 5 9 21 24 22 20 21 19 22 17 12 11 10 7 7 5 5 4 7 13 19 26 29 32 35 36 35 38 41 42 44 42 45 46 46 45 44 44
9 5 6 6 5 1 7 10 6 7 7 14 15 19 21 21 11 15 15 14 11 10 9 6 5 4 3 5 7 8 12 14 15 16 21 27 35 39 40 43 46 47 48 49 47 48 49 50 46
11 8 5 5 3 5 4 5 2 3 3 10 12 11 15 27 28 24 22 17 13 10 6 3 1 3 5 6 6 10 14 18 22 24 23 24 27 28 38 43 45 48 53 52 52 50 52 55 52
1 3 3 6 5 1 4 2 4 4 5 4 1 14 30 27 24 21 19 16 11 10 6 2 4 6 8 11 13 15 19 22 25 26 28 31 35 36 35 36 45 47 50 56 58 58 57 55 51
6 8 6 4 4 3 3 4 7 3 4 5 8 24 26 23 19 17 14 12 10 7 3 1 3 8 13 17 20 22 22 24 26 29 34 37 39 40 43 42 39 46 50 54 56 54 59 59 57
8 6 8 5 3 2 5 5 5 4 6 4 5 21 22 20 17 14 9 5 2 3 7 9 12 16 18 20 22 23 26 29 31 32 33 35 37 37 35 39 41 38 46 55 58 60 60 62 61
6 6 3 4 4 5 2 3 8 2 8 9 9 18 18 14 10 5 1 4 4 10 12 14 17 21 21 24 28 28 27 27 29 30 33 34 35 36 37 36 38 41 41 46 53 57 58 59 59
4 6 5 5 2 3 6 3 5 8 12 20 19 16 13 10 7 4 6 9 7 9 13 16 16 20 22 24 26 25 28 31 31 31 31 35 38 37 35 37 38 39 40 41 43 50 53 52 55
2 4 6 5 1 2 4 1 7 3 8 9 10 12 14 15 14 11 12 13 11 11 11 16 18 20 22 24 25 28 30 32 32 33 32 34 36 40 40 34 38 38 39 39 40 44 49 51 50
4 3 3 3 2 3 4 4 5 4 6 6 6 11 11 15 16 14 6 1 3 7 10 13 14 16 19 23 25 25 24 26 27 28 31 34 35 36 40 42 37 34 32 33 37 40 43 48 52
3 1 4 4 5 4 1 4 2 6 7 8 9 14 11 5 15 18 13 8 5 2 4 8 12 16 19 20 20 23 26 28 29 26 26 24 24 28 36 39 39 34 31 30 33 36 38 44 44
4 7 6 5 6 5 4 6 1 5 4 11 9 20 19 16 14 9 7 8 10 13 17 21 26 30 35 39 42 42 39 36 35 32 27 25 23 27 30 33 36 35 32 32 31 33 39 39 36
Wind_Direction
284 290 305 309 36 65 225 246 209 296 304 38 84 101 119 75 177 201 156 164 172 167 164 166 163 164 162 158 153 152 152 152 152 154 156 154 150 151 150 150 149 144 140 137 137 136 133 130 130
281 299 317 245 127 254 261 215 264 260 259 87 82 93 62 58 92 143 158 168 173 166 165 169 164 166 164 161 157 155 155 156 157 158 156 152 150 152 152 152 150 146 144 143 141 141 141 136 133
274 299 300 158 173 228 232 218 225 289 279 325 130 59 61 119 115 137 159 164 169 166 166 170 165 168 167 164 162 161 161 162 162 160 158 155 153 154 154 153 151 150 150 146 144 146 146 143 139
244 277 249 180 227 247 236 256 302 294 282 289 118 83 83 134 163 165 154 157 169 165 167 172 167 169 170 168 167 167 167 169 169 165 162 161 159 159 159 158 159 159 158 154 154 156 157 157 151
230 234 239 248 253 257 256 284 270 282 245 138 132 109 93 109 151 147 143 149 168 170 170 174 171 171 173 174 173 173 174 175 175 174 169 169 168 167 168 169 171 171 168 166 166 169 172 171 167
180 206 141 237 257 269 285 278 285 270 40 96 102 117 108 138 152 144 138 127 153 176 172 175 174 176 178 179 179 180 181 184 185 183 183 179 179 179 180 182 184 183 180 179 179 183 186 185 186
164 109 215 216 264 287 252 251 252 15 333 77 140 107 138 156 155 150 168 151 134 161 178 177 180 181 184 186 187 187 189 192 196 197 194 196 194 192 191 192 194 194 193 193 193 193 195 197 201
203 115 229 224 241 272 297 302 299 4 356 162 85 78 140 164 168 169 188 181 166 154 160 178 188 189 190 191 192 195 197 200 202 205 206 205 204 207 205 202 202 203 204 204 205 205 205 206 209
215 165 218 217 221 249 25 89 270 283 327 123 122 129 145 138 151 177 188 182 175 174 174 172 183 196 197 197 199 202 205 208 210 210 210 212 212 210 211 214 213 211 213 216 217 215 213 213 214
184 207 223 218 235 264 281 186 255 28 233 272 146 152 164 180 162 139 185 193 198 188 188 191 188 195 199 203 206 209 213 214 216 217 216 216 217 218 219 218 218 220 219 220 224 225 221 219 217
205 219 218 247 252 263 267 350 275 315 280 45 16 120 171 178 169 129 158 176 213 214 205 201 198 191 187 210 212 214 218 220 222 222 223 222 221 221 224 223 223 222 223 224 225 225 226 226 222
232 226 225 246 251 252 301 246 233 239 258 271 313 311 170 158 176 182 142 145 191 213 225 215 205 196 192 188 207 222 229 223 220 226 227 225 225 228 229 230 230 228 227 228 230 230 229 227 226
200 252 237 240 248 244 238 255 251 252 264 262 274 323 172 175 174 204 246 280 213 204 219 232 217 198 203 252 235 234 225 227 228 228 233 234 233 231 234 236 235 234 231 231 232 232 231 229 228
224 226 245 245 241 240 215 232 188 202 227 250 251 262 208 224 222 204 205 240 291 297 209 212 226 216 236 238 253 233 225 228 230 233 239 247 244 241 239 240 240 239 235 232 233 233 234 234 231
236 266 261 250 248 231 244 234 218 203 230 244 252 256 255 236 251 250 249 188 242 296 200 190 202 227 231 242 255 236 240 236 242 249 251 259 252 248 249 249 250 248 243 238 235 236 236 236 235
198 191 244 268 196 228 162 240 239 223 233 236 240 244 245 245 242 227 233 267 290 75 133 154 188 212 227 246 259 241 243 250 252 254 257 259 261 256 257 253 254 253 250 250 246 243 242 241 239
23 204 182 258 190 190 160 225 237 230 238 248 238 231 230 227 238 249 249 254 269 245 197 144 157 175 210 235 239 248 250 252 263 258 256 262 259 259 260 260 258 259 253 252 251 249 248 245 242
256 247 48 214 263 180 212 231 245 226 236 235 214 216 213 220 223 239 236 238 241 213 195 188 187 187 198 228 256 263 255 252 261 266 270 268 265 269 264 262 259 256 256 251 247 249 248 250 247
240 253 248 282 268 228 228 218 235 194 204 227 202 202 210 210 231 238 237 235 229 198 195 195 154 142 130 140 187 245 261 260 263 264 266 268 271 270 270 266 260 258 255 254 250 250 248 248 248
280 265 273 264 268 158 174 205 209 173 196 196 213 228 234 234 138 127 145 148 146 157 172 187 192 173 180 233 262 268 274 280 282 277 278 279 270 271 272 272 270 262 258 254 252 247 248 249 246
274 193 223 207 345 6 70 5 171 280 332 287 238 202 215 145 129 120 124 119 119 131 127 126 193 264 287 317 299 288 284 282 284 286 286 285 281 281 276 272 270 270 267 259 255 252 245 247 244
195 255 68 53 79 212 54 260 304 268 294 10 119 143 126 121 115 111 116 115 114 109 100 22 318 309 309 305 312 315 308 306 303 298 294 290 284 281 278 281 272 269 266 265 259 257 252 245 239
213 121 113 120 114 97 333 98 265 316 28 91 109 124 126 123 123 122 114 113 117 129 148 117 345 326 314 309 309 309 305 303 301 299 298 300 300 295 284 275 275 272 265 264 262 256 258 256 248
152 74 34 45 82 59 219 135 273 239 167 171 140 129 127 126 125 119 116 128 113 345 321 316 316 317 309 307 309 305 302 302 302 304 304 304 304 303 291 284 279 277 273 266 265 265 261 260 255
73 71 7 355 16 228 101 69 235 301 160 150 152 135 128 128 126 105 5 343 295 294 290 297 296 295 294 293 295 294 291 289 294 297 298 303 305 308 305 299 289 285 276 273 268 267 267 261 258
48 138 148 178 180 274 317 237 284 112 116 133 133 139 147 159 183 231 268 270 268 268 270 276 284 289 288 291 293 294 290 290 291 294 292 294 298 303 305 302 294 286 282 276 270 268 266 264 263
321 63 172 110 82 81 247 269 38 93 118 132 159 177 189 197 209 234 247 242 261 275 270 289 289 287 289 291 291 291 286 286 285 287 284 287 292 298 303 305 297 293 288 277 276 272 270 269 261
100 166 63 35 140 237 272 241 172 164 170 188 205 213 229 233 233 246 254 85 245 258 265 265 278 292 289 283 278 271 269 270 277 282 283 285 287 292 295 300 303 290 295 286 278 277 273 267 267
1 19 114 114 131 187 216 271 178 176 198 206 230 231 252 30 85 89 89 84 75 48 322 323 318 316 311 305 294 285 280 278 275 274 274 276 285 292 295 300 299 300 285 287 287 281 277 269 266
221 209 166 138 210 216 164 255 186 133 273 262 303 97 85 75 78 64 35 0 337 329 321 319 315 311 306 302 299 293 287 283 283 279 276 274 279 278 285 295 300 304 303 291 283 280 273 266 249